CHUANG XIN 1-03

导读 | 豆包AI

CHUANG XIN 1-03(创新一号03星)是中国研制的小型数据采集传输实验卫星,于北京时间2011年11月20日8时,在酒泉卫星发射中心由长征二号丁运载火箭以一箭双星方式发射升空。作为中国创新一号系列的第三颗卫星,它主要承担水利、水文、气象、电力及减灾等领域监测站点的数据采集与传输任务,可与创新一号02星实现双星同时在轨服务,为相关领域地面监测提供天基传输支撑,服务国民经济建设。

Basic Information
目录编号:
37930
目录名称:
CHUANG XIN 1-03
国际标识:
2011-068A
轨道中心:
EARTH
卫星名称:
CHUANG XIN 1-03
卫星全名:
--
卫星状态:
在轨 (已飞行5275 天)
发射日期:
2011-11-20 UTC
国别 :
中国 (CN)
星等 :
--
Orbit Information
数据来源 国际轨道数据 AOE轨道数据
星历时间 2026-04-30T21:24:34+0800
5小时前
查看轨道信息
2026-04-25T10:00:00+0800
5天前
查看轨道信息
半长轴 7168.102km 7168.124km
偏心率 0.0013765 0.0013497
轨道倾角 98.701° 98.696°
近地点辐角 255.700° 265.981°
升交点赤经 138.132° 132.648°
平近点角 257.094° 145.154°
近地点 780.098km 780.312km
远地点 799.832km 799.662km
周期 100.662分钟 100.663分钟
每日圈数 14.305287 14.305221
Detailed Information
使用方式:
暂无
2D Orbit Map
3D Orbit Map
Orbit Altitude Analysis Chart
Orbit Inclination Analysis Chart
Orbit Comprehensive Analysis Chart
View Comprehensive Chart